Location: A�t Bou Chrif
(32.7193°N, 5.2385°W)
Time: 03:22:27
(UTC+00:00)

CZ-2C R/B - Pass Details

Date: 08 August 2020
Orbit: 784 x 870 km, 98.3° (Epoch: 20 September)

Event Time Altitude Azimuth Distance (km) Brightness Sun altitude
Rises 20:21:14 0° 8° (N) 3,279 6.1 -14.0°
Reaches altitude 10° 20:23:34 10° 6° (N) 2,349 5.3 -14.4°
Maximum altitude 20:28:41 67° 285° (WNW) 855 2.9 -15.3°
Drops below altitude 10° 20:33:51 10° 203° (SSW) 2,364 4.9 -16.2°
Sets 20:36:12 0° 201° (SSW) 3,301 5.7 -16.7°
